GW5942 Weather Reports


time (UTC)temp
C
wind
direction
speed
KPH
gust
KPH
rain 1hr
cm
rain 24hr
cm
rain mn
cm
humidity
%
barometer
mb
20260906090130 20 161 0.0 0.0 0.00 0.00 0.03 94 1010.1
20260906090029 20 130 0.0 0.0 0.00 0.30 0.00 94 1015.7
20260906085506 20 130 0.0 0.0 0.00 0.30 0.00 94 1015.7
20260906085129 20 161 0.0 0.0 0.00 0.00 0.03 92 1010.3
20260906085010 20 130 0.0 0.0 0.00 0.30 0.00 94 1015.8
20260906084511 20 130 0.0 0.0 0.00 0.30 0.00 94 1015.7
20260906084127 20 161 0.0 0.0 0.00 0.00 0.03 93 1010.2
20260906084003 20 130 0.0 0.0 0.00 0.30 0.00 94 1015.7
20260906083507 20 130 0.0 0.0 0.00 0.30 0.00 94 1015.6
20260906083127 20 161 0.0 0.0 0.00 0.00 0.03 93 1010.2
20260906083012 20 130 0.0 0.0 0.00 0.30 0.00 94 1015.7
20260906082508 20 130 0.0 0.0 0.00 0.30 0.00 94 1015.7
20260906082126 20 161 0.0 1.6 0.00 0.00 0.03 92 1010.2
20260906082007 20 130 0.0 0.0 0.00 0.30 0.00 94 1015.7
20260906081521 20 130 0.0 1.6 0.00 0.30 0.00 94 1015.7
20260906081125 21 161 0.0 3.2 0.00 0.00 0.03 93 1010.2
20260906081012 20 130 0.0 3.2 0.00 0.30 0.00 94 1015.7
20260906080503 20 130 1.6 3.2 0.00 0.30 0.00 94 1015.7
20260906080124 21 161 3.2 4.8 0.00 0.00 0.03 92 1010.1
20260906080019 20 109 1.6 3.2 0.00 0.30 0.00 94 1015.6
20260906075512 20 96 0.0 3.2 0.00 0.30 0.00 94 1015.6
20260906075014 20 195 1.6 3.2 0.00 0.30 0.00 94 1015.5
20260906074512 20 243 0.0 0.0 0.00 0.30 0.00 94 1015.4
20260906074122 20 170 0.0 0.0 0.00 0.00 0.03 92 1009.7
20260906074012 20 243 0.0 0.0 0.00 0.30 0.00 94 1015.3
20260906073517 20 243 0.0 0.0 0.00 0.30 0.00 93 1015.2
20260906073121 21 170 0.0 0.0 0.00 0.00 0.03 92 1009.5
20260906073010 20 244 0.0 0.0 0.00 0.30 0.00 94 1015.3
20260906072507 20 243 0.0 0.0 0.00 0.30 0.00 93 1015.3
20260906072119 21 170 0.0 0.0 0.00 0.00 0.03 92 1009.8
20260906072007 20 244 0.0 0.0 0.00 0.30 0.00 93 1015.4
20260906071524 20 244 0.0 0.0 0.00 0.30 0.00 93 1015.5
20260906071004 20 244 0.0 0.0 0.00 0.30 0.00 94 1015.6
20260906070511 20 243 0.0 0.0 0.00 0.30 0.00 93 1015.7
20260906070118 21 170 0.0 0.0 0.00 0.00 0.03 92 1010.0
20260906070023 20 243 0.0 0.0 0.00 0.30 0.00 93 1015.6
20260906065514 20 243 0.0 0.0 0.00 0.30 0.00 93 1015.6
20260906065117 21 170 0.0 0.0 0.00 0.00 0.03 92 1010.1
20260906065010 20 243 0.0 0.0 0.00 0.30 0.00 93 1015.7
20260906064524 21 244 0.0 0.0 0.00 0.30 0.00 93 1015.8
20260906064116 21 170 0.0 0.0 0.00 0.00 0.03 92 1010.3
20260906064016 21 244 0.0 0.0 0.00 0.30 0.00 93 1015.9
20260906063507 21 243 0.0 0.0 0.00 0.30 0.00 93 1015.8
20260906063115 21 170 0.0 0.0 0.00 0.00 0.03 92 1010.3
20260906063016 21 243 0.0 0.0 0.00 0.30 0.00 93 1015.9
20260906062521 21 243 0.0 0.0 0.00 0.30 0.00 93 1016.1
20260906062113 21 170 0.0 0.0 0.00 0.00 0.03 92 1010.6
20260906062019 21 243 0.0 0.0 0.00 0.30 0.00 93 1016.2
20260906061514 21 244 0.0 3.2 0.00 0.30 0.00 93 1016.2
20260906061015 21 244 0.0 3.2 0.00 0.30 0.00 93 1016.1
20260906060509 21 176 0.0 3.2 0.00 0.30 0.00 93 1016.2
20260906060111 21 170 0.0 0.0 0.00 0.00 0.03 91 1010.7
20260906060024 21 119 0.0 0.0 0.00 0.30 0.00 93 1016.3
20260906055511 21 176 0.0 0.0 0.00 0.30 0.00 92 1016.3
20260906055111 21 170 0.0 0.0 0.00 0.00 0.03 91 1010.7
20260906055013 21 176 0.0 0.0 0.00 0.30 0.00 92 1016.3
20260906054527 21 176 0.0 0.0 0.00 0.30 0.00 92 1016.3
20260906054110 21 170 0.0 0.0 0.00 0.00 0.03 91 1010.7
20260906054009 21 176 0.0 0.0 0.00 0.30 0.00 92 1016.2
20260906053514 21 176 0.0 0.0 0.00 0.30 0.00 92 1016.3
20260906053109 21 170 0.0 0.0 0.00 0.00 0.03 91 1010.8
20260906053030 21 176 0.0 0.0 0.00 0.30 0.00 92 1016.4
20260906052516 21 176 0.0 0.0 0.00 0.30 0.00 92 1016.4
20260906052012 21 176 0.0 0.0 0.00 0.30 0.00 92 1016.4
20260906051527 21 176 0.0 0.0 0.00 0.30 0.00 92 1016.4
20260906051107 21 170 0.0 0.0 0.00 0.00 0.03 91 1010.9
20260906051021 21 176 0.0 1.6 0.00 0.30 0.00 92 1016.5
20260906050513 21 176 0.0 4.8 0.00 0.30 0.00 92 1016.6
20260906050105 22 170 0.0 3.2 0.00 0.00 0.03 91 1011.0
20260906050017 21 165 1.6 4.8 0.00 0.30 0.00 92 1016.6
20260906045513 21 129 0.0 0.0 0.00 0.30 0.00 92 1016.5
20260906045104 21 170 1.6 4.8 0.00 0.00 0.03 91 1010.9
20260906045011 21 129 0.0 0.0 0.00 0.30 0.00 91 1016.4
20260906044520 21 129 0.0 0.0 0.00 0.30 0.00 91 1016.5
20260906044103 21 170 0.0 0.0 0.00 0.00 0.03 90 1010.9
20260906044014 21 98 0.0 0.0 0.00 0.30 0.00 92 1016.5
20260906043515 21 98 0.0 0.0 0.00 0.30 0.00 91 1016.4
20260906043103 22 170 0.0 0.0 0.00 0.00 0.03 89 1010.6
20260906043032 21 98 0.0 0.0 0.00 0.30 0.00 90 1016.2
20260906042514 21 98 0.0 0.0 0.00 0.30 0.00 90 1016.3
20260906042101 22 170 0.0 0.0 0.00 0.00 0.03 88 1010.7
20260906042014 21 98 0.0 0.0 0.00 0.30 0.00 90 1016.4
20260906041535 21 98 0.0 0.0 0.00 0.30 0.00 90 1016.4
20260906041100 22 170 0.0 0.0 0.00 0.00 0.03 88 1010.8
20260906041010 22 98 0.0 0.0 0.00 0.30 0.00 90 1016.4
20260906040514 22 98 0.0 0.0 0.00 0.30 0.00 90 1016.3
20260906040059 22 170 0.0 0.0 0.00 0.00 0.00 89 1010.6
20260906040035 22 98 0.0 0.0 0.00 0.30 0.00 89 1016.3
20260906035519 22 98 0.0 0.0 0.00 0.30 0.30 90 1016.3
20260906035058 22 170 0.0 1.6 0.00 0.00 0.15 88 1010.7
20260906035013 22 98 0.0 0.0 0.00 0.30 0.30 90 1016.3
20260906034537 22 140 0.0 0.0 0.00 0.30 0.30 89 1016.3
20260906034057 22 170 0.0 0.0 0.00 0.00 0.15 88 1010.7
20260906034014 22 140 0.0 3.2 0.00 0.30 0.30 90 1016.4
20260906033511 22 124 0.0 3.2 0.00 0.30 0.30 90 1016.4
20260906033056 22 170 0.0 0.0 0.00 0.00 0.15 89 1010.7
20260906033031 22 123 1.6 8.0 0.00 0.30 0.30 90 1016.4
20260906032513 22 179 3.2 8.0 0.00 0.30 0.30 90 1016.5
20260906032055 22 170 6.4 6.4 0.00 0.00 0.15 89 1010.9
20260906032017 22 217 3.2 8.0 0.00 0.30 0.30 91 1016.6
20260906031529 22 157 1.6 8.0 0.00 0.30 0.30 91 1016.6
20260906031054 22 154 1.6 8.0 0.00 0.00 0.15 89 1011.0
20260906031014 21 166 4.8 8.0 0.00 0.30 0.30 91 1016.7
20260906030521 21 140 3.2 4.8 0.00 0.30 0.30 91 1016.7
20260906030053 22 178 0.0 0.0 0.00 0.00 0.15 89 1011.0
20260906030035 22 76 1.6 3.2 0.00 0.30 0.30 90 1016.7
20260906025519 22 76 1.6 3.2 0.00 0.30 0.30 90 1016.7
20260906025052 22 178 0.0 0.0 0.00 0.00 0.15 88 1011.0
20260906025016 22 76 1.6 3.2 0.00 0.30 0.30 90 1016.6
20260906024536 22 76 0.0 3.2 0.00 0.30 0.30 90 1016.6
20260906024051 22 178 0.0 0.0 0.00 0.00 0.15 88 1011.0
20260906024015 22 76 1.6 3.2 0.00 0.30 0.30 90 1016.7
20260906023515 22 76 0.0 3.2 0.00 0.30 0.30 90 1016.7
20260906023050 22 178 0.0 0.0 0.00 0.00 0.15 89 1011.0
20260906023029 22 352 0.0 3.2 0.00 0.30 0.30 90 1016.7
20260906022512 22 352 0.0 3.2 0.00 0.30 0.30 89 1016.6
20260906022049 22 178 0.0 0.0 0.00 0.00 0.15 89 1010.8
20260906022012 22 352 0.0 4.8 0.00 0.30 0.30 89 1016.5
20260906021505 22 347 1.6 4.8 0.00 0.30 0.30 89 1016.4
20260906021048 22 178 0.0 0.0 0.00 0.00 0.15 89 1010.7
20260906021002 22 5 1.6 3.2 0.00 0.30 0.30 89 1016.5
20260906020507 22 107 0.0 3.2 0.00 0.30 0.30 89 1016.4
20260906020047 22 178 0.0 0.0 0.00 0.00 0.15 89 1010.6
20260906020009 22 107 0.0 3.2 0.00 0.30 0.30 89 1016.4
20260906015508 22 107 0.0 1.6 0.00 0.30 0.30 89 1016.4
20260906015046 22 178 0.0 0.0 0.00 0.00 0.15 89 1010.6
20260906015007 22 107 0.0 1.6 0.00 0.30 0.30 89 1016.3
20260906014516 22 107 0.0 3.2 0.00 0.30 0.30 89 1016.4
20260906014044 22 178 0.0 0.0 0.00 0.00 0.15 88 1010.6
20260906014006 22 106 0.0 3.2 0.00 0.30 0.30 89 1016.4
20260906013510 22 107 0.0 0.0 0.00 0.30 0.30 88 1016.2
20260906013044 22 178 0.0 0.0 0.00 0.00 0.15 87 1010.3
20260906013024 22 107 0.0 0.0 0.00 0.30 0.30 88 1016.0
20260906012513 22 107 0.0 1.6 0.00 0.30 0.30 88 1016.0
20260906012008 22 107 0.0 1.6 0.00 0.30 0.30 87 1015.8
20260906011520 22 107 0.0 1.6 0.00 0.30 0.30 87 1015.8
20260906011041 23 178 0.0 3.2 0.00 0.00 0.15 87 1010.0
20260906011016 22 107 0.0 3.2 0.00 0.30 0.30 87 1015.8
20260906010506 22 107 0.0 3.2 0.00 0.30 0.30 87 1015.8
20260906010040 23 178 3.2 4.8 0.00 0.00 0.13 86 1009.8
20260906010008 23 107 1.6 3.2 0.00 0.30 0.30 87 1015.6
20260906005507 23 130 0.0 3.2 0.00 0.30 0.30 86 1015.8
20260906005040 23 178 0.0 3.2 0.00 0.00 0.13 85 1010.0
20260906005008 23 130 0.0 4.8 0.00 0.30 0.30 86 1015.8
20260906004514 23 98 1.6 4.8 0.00 0.30 0.30 86 1015.8
20260906004008 23 150 0.0 0.0 0.00 0.30 0.30 85 1015.8
20260906003512 23 150 0.0 1.6 0.00 0.30 0.30 84 1015.7
20260906003038 24 236 0.0 0.0 0.00 0.00 0.13 83 1009.8
20260906003008 23 150 0.0 1.6 0.00 0.30 0.30 83 1015.7
20260906002510 24 150 0.0 3.2 0.00 0.30 0.30 83 1015.7
20260906002037 24 236 0.0 1.6 0.00 0.00 0.13 81 1009.9
20260906002014 24 150 0.0 3.2 0.00 0.30 0.30 83 1015.7
20260906001542 24 150 0.0 1.6 0.00 0.30 0.30 82 1015.7
20260906001035 25 236 0.0 1.6 0.00 0.00 0.13 82 1009.7
20260906001008 25 150 0.0 3.2 0.00 0.30 0.30 82 1015.7
20260906000512 25 150 0.0 3.2 0.00 0.30 0.30 81 1015.8
20260906000035 25 236 0.0 3.2 0.00 0.00 0.10 81 1009.8
20260906000030 25 150 0.0 0.0 0.00 0.30 0.30 80 1015.9
20260905235515 25 150 0.0 3.2 0.00 0.30 0.30 79 1015.9
20260905235012 25 150 0.0 3.2 0.00 0.30 0.30 79 1015.6
20260905234511 25 150 0.0 3.2 0.00 0.30 0.30 78 1015.6
20260905234032 26 236 3.2 3.2 0.00 0.00 0.10 76 1009.7
20260905234006 26 150 0.0 3.2 0.00 0.30 0.30 76 1015.7
20260905233508 26 90 0.0 3.2 0.00 0.30 0.30 75 1015.8
20260905233031 26 236 0.0 1.6 0.00 0.00 0.10 75 1009.7
20260905233021 26 282 0.0 3.2 0.00 0.30 0.30 75 1015.7
20260905232509 27 259 0.0 1.6 0.00 0.30 0.30 74 1015.5
20260905232031 26 236 0.0 3.2 0.00 0.00 0.10 75 1009.7
20260905232012 27 259 0.0 1.6 0.00 0.30 0.30 74 1015.6
20260905231517 27 259 1.6 1.6 0.00 0.30 0.30 72 1015.6
20260905231017 27 259 0.0 0.0 0.00 0.30 0.30 71 1015.6
20260905230515 28 259 0.0 0.0 0.00 0.30 0.30 71 1015.6
20260905230028 28 236 1.6 3.2 0.00 0.00 0.08 72 1009.7
20260905230010 28 259 0.0 0.0 0.00 0.30 0.30 70 1015.7
20260905225510 28 259 0.0 0.0 0.00 0.30 0.30 67 1015.7
20260905225027 28 236 0.0 1.6 0.00 0.00 0.05 68 1009.7
20260905225017 29 259 0.0 0.0 0.00 0.30 0.30 67 1015.7
20260905224533 29 259 0.0 3.2 0.00 0.30 0.30 66 1015.8
20260905224026 29 236 0.0 1.6 0.00 0.00 0.05 67 1009.8
20260905224011 30 259 0.0 3.2 0.00 0.30 0.30 64 1015.8
20260905223518 30 259 0.0 3.2 0.00 0.30 0.30 63 1015.7
20260905223030 30 259 0.0 3.2 0.00 0.30 0.30 64 1015.6
20260905223025 30 236 0.0 4.8 0.00 0.00 0.05 64 1009.6
20260905222512 30 259 0.0 3.2 0.00 0.30 0.30 62 1015.5
20260905222013 30 242 1.6 6.4 0.00 0.30 0.30 60 1015.6
20260905221530 30 304 1.6 6.4 0.00 0.30 0.30 60 1015.6
20260905221023 30 273 1.6 4.8 0.00 0.00 0.05 59 1009.6
20260905221017 30 196 1.6 4.8 0.00 0.30 0.30 62 1015.6
20260905220512 30 253 1.6 4.8 0.00 0.30 0.30 59 1015.7
20260905220024 30 250 0.0 4.8 0.00 0.30 0.30 59 1015.8
20260905215516 30 274 1.6 4.8 0.00 0.30 0.30 58 1015.9
20260905215021 31 277 3.2 6.4 0.00 0.00 0.05 61 1009.9
20260905215019 30 331 1.6 4.8 0.00 0.30 0.30 58 1015.9
20260905214520 30 207 1.6 6.4 0.00 0.30 0.30 58 1015.9
20260905214020 31 264 3.2 6.4 0.00 0.00 0.03 59 1010.0
20260905214013 30 163 1.6 6.4 0.00 0.30 0.30 58 1016.0
20260905213515 30 267 0.0 8.0 0.00 0.30 0.30 59 1015.8
20260905213019 30 258 3.2 6.4 0.00 0.00 0.03 57 1009.9
20260905213015 30 198 4.8 8.0 0.00 0.30 0.30 60 1015.9
20260905212512 30 270 1.6 8.0 0.00 0.30 0.30 57 1015.9
20260905212018 30 134 1.6 4.8 0.00 0.00 0.03 57 1010.1
20260905211517 30 38 1.6 6.4 0.00 0.30 0.30 59 1016.0
20260905211017 30 279 1.6 6.4 0.00 0.00 0.03 56 1010.1
20260905211012 30 148 3.2 9.7 0.00 0.30 0.30 57 1016.0
20260905210514 30 304 1.6 9.7 0.00 0.30 0.30 57 1015.9
20260905210038 30 272 3.2 11.3 0.00 0.30 0.30 60 1016.0
20260905210016 30 286 4.8 8.0 0.00 0.00 0.03 57 1010.0
20260905205516 30 215 3.2 11.3 0.00 0.30 0.30 58 1016.0
20260905205016 30 277 1.6 8.0 0.00 0.30 0.30 59 1016.0
20260905205014 30 292 8.0 8.0 0.00 0.00 0.03 58 1010.0
20260905204533 30 147 3.2 8.0 0.00 0.30 0.30 59 1016.0
20260905204017 30 132 1.6 11.3 0.00 0.30 0.30 57 1016.2
20260905203514 29 173 6.4 11.3 0.00 0.30 0.30 59 1016.2
20260905203030 29 224 1.6 4.8 0.00 0.30 0.30 63 1016.2
20260905203013 30 272 0.0 4.8 0.00 0.00 0.03 60 1010.1
20260905202508 29 249 1.6 4.8 0.00 0.30 0.30 63 1016.2
20260905202012 30 279 3.2 8.0 0.00 0.00 0.03 61 1010.4
20260905202003 29 292 3.2 4.8 0.00 0.30 0.30 63 1016.4
20260905201503 29 248 1.6 6.4 0.00 0.30 0.30 61 1016.4
20260905201010 29 165 3.2 6.4 0.00 0.00 0.03 61 1010.5
20260905201002 29 238 3.2 6.4 0.00 0.30 0.30 62 1016.5
20260905200506 29 207 3.2 6.4 0.00 0.30 0.30 64 1016.6
20260905200010 29 243 3.2 8.0 0.00 0.00 0.03 64 1010.6
20260905200003 29 225 3.2 4.8 0.00 0.30 0.30 64 1016.6
20260905195503 29 254 1.6 8.0 0.00 0.30 0.30 65 1016.6
20260905195004 29 226 4.8 8.0 0.00 0.30 0.30 64 1016.7
20260905194503 28 265 3.2 6.4 0.00 0.30 0.30 66 1016.7
20260905194007 28 183 1.6 9.7 0.00 0.00 0.03 64 1010.8
20260905194002 28 235 3.2 9.7 0.00 0.30 0.30 64 1016.8
20260905193502 28 231 0.0 9.7 0.00 0.30 0.30 65 1017.0
20260905193015 28 167 4.8 9.7 0.00 0.30 0.30 64 1017.2
20260905193006 28 176 3.2 11.3 0.00 0.00 0.03 65 1011.0
20260905192503 28 187 1.6 6.4 0.00 0.30 0.30 66 1017.3
20260905192002 27 208 3.2 6.4 0.00 0.30 0.30 69 1017.3
20260905191508 27 269 0.0 6.4 0.00 0.30 0.30 68 1017.3
20260905191015 27 46 0.0 6.4 0.00 0.30 0.30 68 1017.4
20260905191004 28 339 3.2 6.4 0.00 0.00 0.03 64 1011.3
20260905190502 27 352 0.0 3.2 0.00 0.30 0.30 70 1017.3
20260905190004 27 204 0.0 4.8 0.00 0.00 0.03 68 1011.2
20260905185504 26 267 0.0 6.4 0.00 0.30 0.30 73 1017.5
20260905185003 26 205 3.2 4.8 0.00 0.00 0.03 70 1011.4
20260905184503 26 192 3.2 6.4 0.00 0.30 0.30 74 1017.7
20260905184003 26 106 1.6 9.7 0.00 0.30 0.30 72 1017.7
20260905183503 25 143 3.2 9.7 0.00 0.30 0.30 77 1017.6
20260905183003 25 166 4.8 8.0 0.00 0.30 0.30 80 1017.9
20260905183000 25 219 8.0 11.3 0.00 0.00 0.03 78 1011.7
20260905182506 25 173 3.2 8.0 0.00 0.30 0.30 79 1018.0
20260905182008 24 139 3.2 8.0 0.00 0.30 0.30 79 1018.1
20260905181959 25 125 3.2 6.4 0.00 0.00 0.03 78 1011.9
20260905181511 23 173 6.4 9.7 0.00 0.30 0.30 81 1018.3
20260905181004 23 147 3.2 9.7 0.00 0.30 0.30 84 1018.4
20260905180508 22 138 4.8 8.0 0.03 0.30 0.30 85 1018.5
20260905180017 22 136 4.8 8.0 0.03 0.30 0.30 87 1018.4
20260905175957 23 98 4.8 6.4 0.00 0.00 0.03 90 1012.2
20260905175503 22 147 4.8 12.9 0.05 0.30 0.30 90 1018.5
20260905175007 21 132 4.8 12.9 0.10 0.30 0.30 91 1018.5
20260905174956 21 171 0.0 9.7 0.00 0.00 0.03 90 1012.3
20260905174515 21 156 6.4 9.7 0.10 0.30 0.30 91 1018.8
20260905174003 21 169 4.8 6.4 0.23 0.30 0.30 90 1019.2
20260905173955 21 144 4.8 4.8 0.00 0.00 0.03 91 1012.9
20260905173504 20 136 4.8 9.7 0.30 0.30 0.30 89 1019.5
20260905173005 20 146 3.2 9.7 0.30 0.30 0.30 89 1019.9
20260905172954 21 148 1.6 9.7 0.00 0.00 0.03 89 1013.6
20260905172503 20 158 3.2 12.9 0.30 0.30 0.30 90 1019.9
20260905172004 20 76 0.0 17.7 0.30 0.30 0.30 90 1020.0
20260905171953 21 77 4.8 12.9 0.00 0.00 0.03 90 1013.6
20260905171507 20 135 6.4 17.7 0.30 0.30 0.30 89 1020.3
20260905171007 21 143 6.4 17.7 0.30 0.30 0.30 89 1020.6
20260905170952 21 119 11.3 17.7 0.00 0.00 0.03 89 1014.2
20260905170506 21 153 9.7 17.7 0.28 0.28 0.28 88 1020.5
20260905170004 21 122 8.0 11.3 0.28 0.28 0.28 87 1020.4
20260905165951 21 95 6.4 11.3 0.00 0.00 0.03 86 1014.1
20260905165508 21 319 0.0 14.5 0.25 0.25 0.25 87 1020.1
20260905165015 21 13 6.4 14.5 0.20 0.20 0.20 85 1019.9
20260905164523 22 11 3.2 27.4 0.20 0.20 0.20 83 1019.6
20260905164004 23 350 17.7 29.0 0.08 0.08 0.08 78 1019.7
20260905163505 23 39 16.1 37.0 0.00 0.00 0.00 71 1019.4
20260905163004 25 23 14.5 51.5 0.00 0.00 0.00 68 1019.7
20260905162503 26 18 25.7 61.2 0.00 0.00 0.00 64 1019.5
20260905162003 28 352 30.6 61.2 0.00 0.00 0.00 58 1019.5
20260905161947 30 58 30.6 38.6 0.00 0.00 0.00 54 1013.1
20260905161509 31 31 9.7 14.5 0.00 0.00 0.00 64 1018.8
20260905161004 31 20 1.6 6.4 0.00 0.00 0.00 63 1018.5
20260905160946 31 349 1.6 4.8 0.00 0.00 0.00 59 1012.2
20260905160506 31 5 3.2 11.3 0.00 0.00 0.00 63 1018.4
20260905160013 31 21 3.2 11.3 0.00 0.00 0.00 62 1018.8
20260905155945 31 289 1.6 6.4 0.00 0.00 0.00 60 1012.5
20260905155510 31 46 8.0 11.3 0.00 0.00 0.00 61 1018.8
20260905155002 31 140 1.6 6.4 0.00 0.00 0.00 63 1018.8
20260905154943 31 59 1.6 6.4 0.00 0.00 0.00 61 1012.4
20260905154507 31 24 1.6 6.4 0.00 0.00 0.00 63 1018.7
20260905154012 31 22 1.6 8.0 0.00 0.00 0.00 64 1018.9
20260905153943 31 209 0.0 8.0 0.00 0.00 0.00 63 1012.5
20260905153516 31 296 3.2 8.0 0.00 0.00 0.00 67 1018.8
20260905153011 30 219 3.2 9.7 0.00 0.00 0.00 64 1018.8
20260905152942 31 219 4.8 8.0 0.00 0.00 0.00 63 1012.4
20260905152507 30 294 3.2 9.7 0.00 0.00 0.00 64 1018.7
20260905152004 30 279 1.6 9.7 0.00 0.00 0.00 63 1018.6
20260905151941 31 309 3.2 11.3 0.00 0.00 0.00 65 1012.2
20260905151506 30 10 1.6 8.0 0.00 0.00 0.00 65 1018.6
20260905151006 30 237 3.2 9.7 0.00 0.00 0.00 69 1018.6
20260905150511 30 319 3.2 9.7 0.00 0.00 0.00 67 1018.6
20260905150017 30 17 1.6 9.7 0.00 0.00 0.00 67 1018.5
20260905145939 30 163 1.6 9.7 0.00 0.00 0.00 68 1012.2
20260905145506 29 209 3.2 9.7 0.00 0.00 0.00 68 1018.5
20260905145009 29 207 4.8 8.0 0.00 0.00 0.00 70 1018.5
20260905144937 30 238 4.8 6.4 0.00 0.00 0.00 68 1012.2
20260905144518 29 207 1.6 9.7 0.00 0.00 0.00 69 1018.6
20260905144009 28 270 3.2 9.7 0.00 0.00 0.00 69 1018.7
20260905143505 29 36 4.8 9.7 0.00 0.00 0.00 69 1018.7
20260905143029 28 215 1.6 4.8 0.00 0.00 0.00 69 1018.8
20260905142936 29 213 1.6 11.3 0.00 0.00 0.00 69 1012.4
20260905142516 28 275 1.6 4.8 0.00 0.00 0.00 70 1018.8
20260905142007 28 243 1.6 6.4 0.00 0.00 0.00 71 1018.8
20260905141934 28 221 1.6 8.0 0.00 0.00 0.00 70 1012.4
20260905141514 28 302 3.2 6.4 0.00 0.00 0.00 71 1018.8
20260905141013 28 230 0.0 8.0 0.00 0.00 0.00 71 1018.8
20260905140934 28 262 0.0 6.4 0.00 0.00 0.00 69 1012.4
20260905140506 27 145 0.0 8.0 0.00 0.00 0.00 74 1018.7
20260905140009 27 271 3.2 9.7 0.00 0.00 0.00 75 1018.6
20260905135933 28 252 3.2 6.4 0.00 0.00 0.00 71 1012.3
20260905135508 27 157 6.4 9.7 0.00 0.00 0.00 76 1018.7
20260905135008 27 167 0.0 9.7 0.00 0.00 0.00 76 1018.8
20260905134524 26 110 1.6 9.7 0.00 0.00 0.00 77 1018.8
20260905134008 26 196 1.6 6.4 0.00 0.00 0.00 77 1018.8
20260905133931 27 183 0.0 6.4 0.00 0.00 0.00 74 1012.5
20260905133510 26 148 3.2 6.4 0.00 0.00 0.00 78 1018.9
20260905133018 26 175 4.8 6.4 0.00 0.00 0.00 80 1018.9
20260905132929 27 136 3.2 9.7 0.00 0.00 0.00 78 1012.6
20260905132509 26 179 3.2 8.0 0.00 0.00 0.00 81 1018.8
20260905132014 25 167 4.8 8.0 0.00 0.00 0.00 82 1018.9
20260905131928 26 177 1.6 4.8 0.00 0.00 0.00 81 1012.7
20260905131526 25 197 3.2 8.0 0.00 0.00 0.00 82 1019.1
20260905131020 25 239 1.6 8.0 0.00 0.00 0.00 84 1019.0
20260905130927 26 193 4.8 6.4 0.00 0.00 0.00 80 1012.8
20260905130507 25 190 3.2 4.8 0.00 0.00 0.00 85 1019.1
20260905130025 24 181 1.6 3.2 0.00 0.00 0.00 86 1019.1
20260905125926 25 132 3.2 4.8 0.00 0.00 0.00 84 1013.0
20260905125516 24 118 0.0 3.2 0.00 0.00 0.00 87 1019.2
20260905125008 23 126 0.0 3.2 0.00 0.00 0.00 89 1019.2
20260905124522 23 126 0.0 3.2 0.00 0.00 0.00 92 1019.3
20260905124008 22 126 0.0 3.2 0.00 0.00 0.00 94 1019.3
20260905123925 23 130 0.0 0.0 0.00 0.00 0.00 89 1013.2
20260905123516 22 126 0.0 3.2 0.00 0.00 0.00 94 1019.3
20260905123045 22 126 0.0 3.2 0.00 0.00 0.00 94 1019.3
20260905122511 22 54 0.0 0.0 0.00 0.00 0.00 94 1019.2
20260905122014 21 54 0.0 0.0 0.00 0.00 0.00 94 1019.1
20260905121922 22 130 0.0 0.0 0.00 0.00 0.00 93 1013.0
20260905121525 21 54 0.0 0.0 0.00 0.00 0.00 94 1019.0
20260905121012 21 54 0.0 1.6 0.00 0.00 0.00 94 1019.0
20260905120922 22 130 0.0 0.0 0.00 0.00 0.00 93 1012.9
20260905120515 21 54 0.0 3.2 0.00 0.00 0.00 94 1018.8
20260905120031 21 351 0.0 3.2 0.00 0.00 0.00 95 1018.7
20260905115920 22 130 0.0 3.2 0.00 0.00 0.00 93 1012.7
20260905115511 21 107 0.0 3.2 0.00 0.00 0.00 94 1018.6
20260905115012 21 107 1.6 3.2 0.00 0.00 0.00 94 1018.5
20260905114919 21 130 0.0 1.6 0.00 0.00 0.00 94 1012.4
20260905114530 20 137 1.6 3.2 0.00 0.00 0.00 94 1018.4
20260905114018 20 101 0.0 3.2 0.00 0.00 0.00 94 1018.4
20260905113508 20 123 1.6 3.2 0.00 0.00 0.00 93 1018.3
20260905113015 20 136 0.0 3.2 0.00 0.00 0.00 94 1018.4
20260905112503 20 136 0.0 3.2 0.00 0.00 0.00 93 1018.3
20260905112004 20 136 0.0 3.2 0.00 0.00 0.00 93 1018.3
20260905111916 21 140 0.0 0.0 0.00 0.00 0.00 93 1012.3
20260905111504 20 117 0.0 3.2 0.00 0.00 0.00 93 1018.2
20260905111004 20 117 0.0 0.0 0.00 0.00 0.00 93 1018.2
20260905110915 21 140 0.0 0.0 0.00 0.00 0.00 92 1012.2
20260905110505 20 117 0.0 0.0 0.00 0.00 0.00 93 1018.1
20260905110006 20 117 0.0 0.0 0.00 0.00 0.00 93 1017.9
20260905105504 20 117 0.0 0.0 0.00 0.00 0.00 93 1017.8
20260905105003 21 117 0.0 1.6 0.00 0.00 0.00 93 1017.7
20260905104913 21 120 0.0 3.2 0.00 0.00 0.00 91 1011.8
20260905104508 21 117 0.0 1.6 0.00 0.00 0.00 93 1017.7
20260905104005 21 117 0.0 3.2 0.00 0.00 0.00 93 1017.6
20260905103911 21 170 0.0 0.0 0.00 0.00 0.00 93 1011.7
20260905103505 21 232 0.0 3.2 0.00 0.00 0.00 93 1017.6
20260905103014 21 317 0.0 0.0 0.00 0.00 0.00 93 1017.7
20260905102911 21 170 0.0 0.0 0.00 0.00 0.00 92 1011.8
20260905102510 21 317 0.0 0.0 0.00 0.00 0.00 93 1017.7
20260905102003 21 317 0.0 3.2 0.00 0.00 0.00 93 1017.7
20260905101909 21 170 0.0 0.0 0.00 0.00 0.00 92 1011.8
20260905101510 21 317 0.0 6.4 0.00 0.00 0.00 93 1017.7
20260905101010 21 345 3.2 6.4 0.00 0.00 0.00 93 1017.6
20260905100908 21 170 0.0 0.0 0.00 0.00 0.00 91 1011.7
20260905100503 21 319 1.6 6.4 0.00 0.00 0.00 93 1017.6
20260905100004 21 5 3.2 6.4 0.00 0.00 0.00 93 1017.6
20260905095908 21 170 0.0 0.0 0.00 0.00 0.00 91 1011.6
20260905095503 21 350 1.6 3.2 0.00 0.00 0.00 93 1017.5
20260905095006 21 173 0.0 3.2 0.00 0.00 0.00 92 1017.4
20260905094906 21 170 0.0 0.0 0.00 0.00 0.00 91 1011.4
20260905094505 21 173 0.0 1.6 0.00 0.00 0.00 92 1017.3
20260905094004 21 173 0.0 0.0 0.00 0.00 0.00 92 1017.3
20260905093906 21 170 0.0 0.0 0.00 0.00 0.00 90 1011.3
20260905093509 21 173 0.0 3.2 0.00 0.00 0.00 92 1017.3
20260905093011 21 173 0.0 3.2 0.00 0.00 0.00 92 1017.3
20260905092904 21 170 0.0 0.0 0.00 0.00 0.00 90 1011.3
20260905092508 21 173 0.0 1.6 0.00 0.00 0.00 92 1017.3
20260905092006 21 173 0.0 0.0 0.00 0.00 0.00 91 1017.2
20260905091903 21 170 0.0 0.0 0.00 0.00 0.00 90 1011.2
20260905091520 21 173 0.0 3.2 0.00 0.00 0.00 91 1017.2
20260905091013 21 173 0.0 3.2 0.00 0.00 0.00 91 1017.2
20260905090902 21 170 0.0 0.0 0.00 0.00 0.00 90 1011.2
20260905090506 21 173 0.0 0.0 0.00 0.00 0.00 91 1017.3